Weather History for Luray Caverns AP, Luray, VA, VA

Change the Weather History Date:

Thursday, May 15, 2014

  Actual Average (KCHO) Record (KCHO)
Temperature  
Mean Temperature 69 °F 63 °F  
Max Temperature 78 °F 74 °F 92 °F (1956)
Min Temperature 60 °F 51 °F 39 °F (2001)
Degree Days  
Heating Degree Days 0 4  
Month to date heating degree days 80  
Since 1 July heating degree days 4392  
Cooling Degree Days 4 2  
Month to date cooling degree days 21  
Year to date cooling degree days 42  
Growing Degree Days 19 (Base 50)    
Moisture  
Dew Point 63 °F    
Average Humidity 90    
Maximum Humidity 100    
Minimum Humidity 54    
Precipitation  
Precipitation 1.45 in 0.13 in 2.45 in (2014)
Month to date precipitation 1.76  
Year to date precipitation 14.25  
Sea Level Pressure  
Sea Level Pressure 30.01 in    
Wind  
Wind Speed 2 mph (SSW)    
Max Wind Speed 15 mph    
Max Gust Speed 29 mph    
Visibility 7 miles    
Events Fog , Rain , Thunderstorm    
T = Trace of Precipitation, MM = Missing Value Source: NWS Daily Summary

Daily Weather History Graph

Daily Weather History Graph

Search for Another Location

Airport:

Trip Planner

Search our weather history database for the weather conditions in past years. The results will help you decide how hot, cold, wet, or windy it might be!

Date:

Astronomy

May. 15, 2014 Rise Set
Actual Time 6:02 AM EDT 8:19 PM EDT
Civil Twilight 5:32 AM EDT 8:49 PM EDT
Nautical Twilight 4:55 AM EDT 9:26 PM EDT
Astronomical Twilight 4:15 AM EDT 10:06 PM EDT
Moon 9:25 PM EDT (5/15) 6:47 AM EDT (5/15)
Length of Visible Light 15h 16m
Length of Day
14h 17m
Full, 99% of the Moon is Illuminated
May 15
Full
May 21
Last Quarter
May 28
New
Jun 5
First Quarter
Jun 13
Full

Hourly Weather History & Observations

Time (EDT) Temp. Dew Point Humidity Pressure Visibility Wind Dir Wind Speed Gust Speed Precip Events Conditions
12:15 AM 64.4 °F 64.4 °F 100% 30.12 in 7.0 mi Calm Calm - N/A   Overcast
12:35 AM 64.4 °F 64.4 °F 100% 30.12 in 7.0 mi Calm Calm - N/A   Overcast
12:55 AM 64.4 °F 64.4 °F 100% 30.12 in 10.0 mi Calm Calm - N/A   Overcast
1:15 AM 64.4 °F 64.4 °F 100% 30.12 in 7.0 mi Calm Calm - N/A   Overcast
1:35 AM 64.4 °F 64.4 °F 100% 30.10 in 7.0 mi Calm Calm - N/A   Overcast
1:55 AM 62.6 °F 62.6 °F 100% 30.09 in 5.0 mi Calm Calm - N/A   Scattered Clouds
2:15 AM 62.6 °F 62.6 °F 100% 30.08 in 5.0 mi Calm Calm - N/A   Scattered Clouds
2:35 AM 62.6 °F 62.6 °F 100% 30.07 in 3.0 mi Calm Calm - N/A   Mostly Cloudy
2:55 AM 62.6 °F 62.6 °F 100% 30.07 in 5.0 mi Calm Calm - N/A   Mostly Cloudy
3:15 AM 62.6 °F 62.6 °F 100% 30.07 in 4.0 mi Calm Calm - N/A   Overcast
3:35 AM 62.6 °F 62.6 °F 100% 30.06 in 5.0 mi Calm Calm - N/A   Overcast
3:55 AM 62.6 °F 62.6 °F 100% 30.06 in 3.0 mi Calm Calm - N/A   Overcast
4:15 AM 62.6 °F 62.6 °F 100% 30.05 in 2.0 mi Calm Calm - N/A   Overcast
4:35 AM 62.6 °F 62.6 °F 100% 30.05 in 3.0 mi ESE 3.5 mph - N/A   Mostly Cloudy
4:55 AM 62.6 °F 62.6 °F 100% 30.06 in 5.0 mi Calm Calm - N/A   Mostly Cloudy
5:15 AM 62.6 °F 62.6 °F 100% 30.06 in 4.0 mi Calm Calm - N/A   Overcast
5:35 AM 60.8 °F 60.8 °F 100% 30.06 in 1.5 mi North 3.5 mph - N/A   Overcast
5:55 AM 60.8 °F 60.8 °F 100% 30.05 in 0.2 mi Calm Calm - N/A Fog Fog
6:15 AM 60.8 °F 60.8 °F 100% 30.06 in 0.2 mi Calm Calm - N/A Fog Fog
6:35 AM 60.8 °F 60.8 °F 100% 30.06 in 5.0 mi Calm Calm - N/A   Mist
6:55 AM 60.8 °F 60.8 °F 100% 30.06 in 4.0 mi Calm Calm - N/A   Mist
7:15 AM 62.6 °F 62.6 °F 100% 30.06 in 5.0 mi Calm Calm - N/A   Clear
7:35 AM 64.4 °F 64.4 °F 100% 30.06 in 5.0 mi Calm Calm - N/A   Clear
7:55 AM 69.8 °F 62.6 °F 78% 30.06 in 10.0 mi Calm Calm - N/A   Mostly Cloudy
8:15 AM 69.8 °F 64.4 °F 83% 30.05 in 10.0 mi Calm Calm - N/A   Overcast
8:35 AM 69.8 °F 64.4 °F 83% 30.05 in 10.0 mi SW 6.9 mph - N/A   Mostly Cloudy
8:55 AM 71.6 °F 62.6 °F 73% 30.04 in 10.0 mi SSW 5.8 mph - N/A   Mostly Cloudy
9:15 AM 71.6 °F 62.6 °F 73% 30.04 in 10.0 mi South 6.9 mph - N/A   Mostly Cloudy
9:35 AM 71.6 °F 59.0 °F 64% 30.04 in 10.0 mi SSW 10.4 mph 19.6 mph N/A   Scattered Clouds
9:55 AM 71.6 °F 59.0 °F 64% 30.04 in 10.0 mi South 10.4 mph - N/A   Scattered Clouds
10:15 AM 73.4 °F 60.8 °F 65% 30.04 in 10.0 mi South 13.8 mph 21.9 mph N/A   Scattered Clouds
10:35 AM 73.4 °F 60.8 °F 65% 30.04 in 10.0 mi South 12.7 mph 21.9 mph N/A   Scattered Clouds
10:55 AM 73.4 °F 60.8 °F 65% 30.04 in 10.0 mi South 12.7 mph 19.6 mph N/A   Scattered Clouds
11:15 AM 73.4 °F 59.0 °F 61% 30.04 in 10.0 mi South 15.0 mph 23.0 mph N/A   Scattered Clouds
11:35 AM 71.6 °F 59.0 °F 64% 30.04 in 10.0 mi South 12.7 mph 23.0 mph N/A   Clear
11:55 AM 73.4 °F 59.0 °F 61% 30.04 in 10.0 mi South 10.4 mph 17.3 mph N/A   Scattered Clouds
12:15 PM 73.4 °F 60.8 °F 65% 30.02 in 10.0 mi South 10.4 mph - N/A   Scattered Clouds
12:35 PM 73.4 °F 60.8 °F 65% 30.02 in 10.0 mi South 9.2 mph 18.4 mph N/A   Mostly Cloudy
12:55 PM 75.2 °F 60.8 °F 61% 30.01 in 10.0 mi South 5.8 mph - N/A   Mostly Cloudy
1:35 PM 78.8 °F 60.8 °F 54% 29.99 in 10.0 mi South 15.0 mph 20.7 mph N/A   Scattered Clouds
1:55 PM 77.0 °F 60.8 °F 57% 29.98 in 10.0 mi SE 6.9 mph 17.3 mph N/A   Scattered Clouds
2:15 PM 77.0 °F 60.8 °F 57% 29.97 in 10.0 mi SSE 9.2 mph 20.7 mph N/A   Scattered Clouds
3:15 PM 68.0 °F 64.4 °F 88% 30.01 in 2.0 mi SSW 13.8 mph 28.8 mph 0.20 in Rain , Thunderstorm Heavy Thunderstorms and Rain
3:55 PM 64.4 °F 64.4 °F 100% 29.99 in 7.0 mi Calm Calm - 0.57 in Rain Rain
4:15 PM 64.4 °F 64.4 °F 100% 29.98 in 2.5 mi Calm Calm - 0.05 in Rain Rain
4:35 PM 64.4 °F 64.4 °F 100% 29.98 in 2.5 mi Calm Calm - 0.10 in Rain Rain
4:55 PM 64.4 °F 64.4 °F 100% 29.98 in 2.0 mi Calm Calm - 0.18 in Rain Heavy Rain
5:15 PM 64.4 °F 64.4 °F 100% 29.98 in 5.0 mi Calm Calm - 0.03 in Rain Light Rain
5:35 PM 64.4 °F 64.4 °F 100% 29.98 in 4.0 mi Calm Calm - 0.06 in Rain Rain
5:55 PM 64.4 °F 64.4 °F 100% 29.97 in 3.0 mi WNW 4.6 mph - 0.14 in Rain Light Rain
6:15 PM 64.4 °F 64.4 °F 100% 29.96 in 10.0 mi Calm Calm - 0.01 in Rain Light Rain
6:35 PM 64.4 °F 64.4 °F 100% 29.94 in 10.0 mi West 4.6 mph - 0.02 in Rain Light Rain
6:55 PM 64.4 °F 64.4 °F 100% 29.94 in 10.0 mi SW 5.8 mph - 0.03 in Rain Rain
7:15 PM 64.4 °F 64.4 °F 100% 29.94 in 10.0 mi Calm Calm - N/A Rain Light Rain
7:35 PM 64.4 °F 64.4 °F 100% 29.93 in 10.0 mi West 4.6 mph - N/A Rain Rain
7:55 PM 64.4 °F 64.4 °F 100% 29.92 in 10.0 mi Calm Calm - 0.01 in Rain Light Rain
8:15 PM 64.4 °F 64.4 °F 100% 29.92 in 10.0 mi Calm Calm - N/A Rain Light Rain
8:35 PM 66.2 °F 62.6 °F 88% 29.92 in 10.0 mi West 6.9 mph 16.1 mph 0.01 in Rain Light Rain
8:55 PM 64.4 °F 64.4 °F 100% 29.93 in 10.0 mi Calm Calm - 0.02 in Rain Light Rain
9:15 PM 64.4 °F 64.4 °F 100% 29.92 in 10.0 mi West 4.6 mph - 0.02 in Rain Rain
9:35 PM 64.4 °F 64.4 °F 100% 29.92 in 7.0 mi Calm Calm - 0.04 in Rain Rain
9:55 PM 62.6 °F 62.6 °F 100% 29.91 in 7.0 mi Calm Calm - 0.08 in Rain Rain
10:15 PM 62.6 °F 62.6 °F 100% 29.90 in 7.0 mi Calm Calm - 0.03 in Rain Light Rain
10:35 PM 62.6 °F 62.6 °F 100% 29.89 in 2.0 mi Calm Calm - 0.07 in Rain Heavy Rain
10:55 PM 62.6 °F 62.6 °F 100% 29.89 in 2.5 mi NE 4.6 mph - 0.18 in Rain Rain
11:15 PM 62.6 °F 62.6 °F 100% 29.87 in 5.0 mi NNE 3.5 mph - 0.04 in Rain Rain
11:35 PM 62.6 °F 62.6 °F 100% 29.87 in 4.0 mi NW 3.5 mph - 0.14 in Rain Heavy Rain
11:55 PM 64.4 °F 64.4 °F 100% 29.85 in 5.0 mi NNW 3.5 mph - 0.24 in Rain Rain